Flight Track Log - Related Links

Times and Time Zones

All times are in EDT time to prevent confusion due to time zone crossing. See the ASH3770 flight status page for this flight to view local times or setup timezone preferences in your user account.

Time Position Orientation Groundspeed Altitude Reporting Facility
EDT Latitude Longitude Course Direction KTS MPH feet Rate Location/Type
Wed 05:04:19 PM 38.9500 -77.5167 North 176 203 1,800  Level Potomac TRACON
Wed 05:05:59 PM 39.0386 -77.5825 330° Northwest 238 274 5,100 2,468 Climbing Washington Center
Wed 05:06:57 PM 39.1069 -77.6111 342° North 251 289 8,300 2,824 Climbing Washington Center
Wed 05:07:00 PM 39.2704 -77.5347 344° North  Level FlightAware Approximate
Wed 05:07:58 PM 39.1708 -77.6503 335° Northwest 251 289 10,700  Level Washington Center
Wed 05:08:00 PM 39.3555 -77.5666 344° North  Level FlightAware Approximate
Wed 05:08:58 PM 39.2472 -77.6928 337° Northwest 267 307 12,200  Level Washington Center
Wed 05:09:00 PM 39.4422 -77.5833 North  Level FlightAware Approximate
Wed 05:09:59 PM 39.3278 -77.7408 335° Northwest 296 341 14,500  Level Washington Center
Wed 05:10:59 PM 39.4122 -77.7889 336° Northwest 314 361 16,500 2,000 Climbing Washington Center
Wed 05:11:59 PM 39.5011 -77.8372 337° Northwest 332 382 18,500 1,105 Climbing Washington Center
Wed 05:14:09 PM 39.6061 -78.0800 299° West 340 391 20,000 474 Climbing Cleveland Center
Wed 05:15:09 PM 39.6442 -78.2053 292° West 360 414 20,000  Level Cleveland Center
Wed 05:16:09 PM 39.6800 -78.3336 290° West 371 427 20,000  Level Cleveland Center
Wed 05:17:09 PM 39.7181 -78.4564 292° West 371 427 20,000  Level Cleveland Center
Wed 05:18:09 PM 39.7597 -78.5767 294° West 371 427 20,000  Level Cleveland Center
Wed 05:19:09 PM 39.8078 -78.7103 295° West 371 427 20,000  Level Cleveland Center
Wed 05:20:09 PM 39.8556 -78.8333 297° West 376 433 20,000  Level Cleveland Center
Wed 05:21:09 PM 39.9033 -78.9567 297° West 376 433 20,000 -600 Level Cleveland Center
Wed 05:22:09 PM 39.9531 -79.0744 299° West 381 438 18,800 -1,550 Descending Cleveland Center
Wed 05:23:09 PM 39.9983 -79.1903 297° West 381 438 16,900 -1,850 Descending Cleveland Center
Wed 05:24:09 PM 40.0411 -79.3058 296° West 371 427 15,100 -1,850 Descending Cleveland Center
Wed 05:25:09 PM 40.0842 -79.4108 298° West 352 405 13,200 -1,850 Descending Cleveland Center
Wed 05:26:09 PM 40.1247 -79.5189 296° West 321 369 11,400 -1,600 Descending Cleveland Center
Wed 05:27:09 PM 40.1653 -79.6267 296° West 326 375 10,000 -700 Descending Cleveland Center
Wed 05:28:09 PM 40.2119 -79.7158 304° West 321 369 10,000 -550 Level Cleveland Center
Wed 05:29:09 PM 40.2603 -79.7806 314° West 285 328 8,900 -1,400 Descending Cleveland Center
Wed 05:30:09 PM 40.3086 -79.8397 317° Northwest 254 292 7,200 -1,700 Descending Cleveland Center
Wed 05:31:09 PM 40.3569 -79.9019 316° Northwest 241 277 5,500 -1,600 Descending Cleveland Center
Wed 05:32:09 PM 40.4011 -79.9669 312° West 241 277 4,000 -800 Descending Cleveland Center
Wed 05:33:09 PM 40.4472 -80.0292 314° West 241 277 3,900 -100 Descending Cleveland Center

Login

Don't have an account? Register now (free) for customized features, flight alerts, and more!